RYR55PN LICJ-LIMP

Flight info

Callsign RYR55PN
Flight time 1h 10m
Altitude 30000
Route LURON DCT DORAS DCT UNIXO DCT OST DCT AMTEL DCT IPLUB L995 LUPOS
Aircraft B738/M-SDE2E3FGHIRWXY/LB1

Departure

Time 2026-05-04 13:48
Airport Falcone–Borsellino Airport (LICJ)

Arrival

Time 2026-05-04 14:58
Airport Parma Airport (LIMP)
Time Latitude Longitude Altitude Speed Heading
2026-05-04 13:31 38.18612 13.10735 52 ft 0 kts 300°
2026-05-04 13:39 38.18610 13.10741 52 ft 4 kts 304°
2026-05-04 13:40 38.18592 13.10759 52 ft 4 kts
2026-05-04 13:40 38.18567 13.10751 50 ft 4 kts
2026-05-04 13:40 38.18548 13.10754 49 ft 4 kts 342°
2026-05-04 13:40 38.18525 13.10755 51 ft 4 kts 37°
2026-05-04 13:41 38.18510 13.10729 48 ft 4 kts 66°
2026-05-04 13:41 38.18500 13.10702 49 ft 2 kts 67°
2026-05-04 13:41 38.18500 13.10701 50 ft 0 kts 67°
2026-05-04 13:43 38.18504 13.10711 52 ft 3 kts 67°
2026-05-04 13:43 38.18503 13.10758 52 ft 8 kts 105°
2026-05-04 13:43 38.18482 13.10838 52 ft 11 kts 109°
2026-05-04 13:44 38.18444 13.10937 52 ft 14 kts 156°
2026-05-04 13:44 38.18374 13.10848 52 ft 18 kts 246°
2026-05-04 13:44 38.18321 13.10688 52 ft 21 kts 246°
2026-05-04 13:44 38.18264 13.10519 52 ft 21 kts 248°
2026-05-04 13:45 38.18208 13.10347 52 ft 22 kts 248°
2026-05-04 13:45 38.18143 13.10157 50 ft 23 kts 245°
2026-05-04 13:45 38.18082 13.09971 52 ft 23 kts 249°
2026-05-04 13:45 38.18022 13.09793 52 ft 22 kts 247°
2026-05-04 13:46 38.17963 13.09617 52 ft 21 kts 247°
2026-05-04 13:46 38.17905 13.09445 52 ft 22 kts 247°
2026-05-04 13:46 38.17843 13.09261 52 ft 24 kts 247°
2026-05-04 13:46 38.17776 13.09062 52 ft 25 kts 247°
2026-05-04 13:47 38.17679 13.08893 52 ft 24 kts 217°
2026-05-04 13:47 38.17552 13.08770 50 ft 23 kts 216°
2026-05-04 13:47 38.17486 13.08810 49 ft 9 kts 69°
2026-05-04 13:47 38.17487 13.08814 50 ft 0 kts 67°
2026-05-04 13:48 38.17495 13.08838 51 ft 13 kts 67°
2026-05-04 13:48 38.17633 13.09246 50 ft 87 kts 66°
2026-05-04 13:48 38.17959 13.10207 55 ft 148 kts 66°
2026-05-04 13:48 38.18370 13.11417 784 ft 142 kts 67°
2026-05-04 13:49 38.18779 13.12643 1386 ft 164 kts 67°
2026-05-04 13:49 38.19246 13.14017 1935 ft 180 kts 67°
2026-05-04 13:49 38.19783 13.15595 2239 ft 209 kts 67°
2026-05-04 13:49 38.20397 13.17388 2432 ft 234 kts 67°
2026-05-04 13:50 38.21178 13.19239 2740 ft 252 kts 52°
2026-05-04 13:50 38.22658 13.20616 3112 ft 270 kts 23°
2026-05-04 13:50 38.24384 13.21466 3951 ft 271 kts 20°
2026-05-04 13:50 38.26166 13.22350 4711 ft 277 kts 22°
2026-05-04 13:51 38.27949 13.23294 5556 ft 279 kts 22°
2026-05-04 13:51 38.29739 13.24255 6375 ft 281 kts 22°
2026-05-04 13:51 38.31540 13.25222 7187 ft 282 kts 21°
2026-05-04 13:51 38.33365 13.26199 7910 ft 286 kts 21°
2026-05-04 13:52 38.37050 13.28165 9441 ft 291 kts 21°
2026-05-04 13:52 38.38930 13.29168 10168 ft 295 kts 21°
2026-05-04 13:52 38.40883 13.30104 10566 ft 310 kts 12°
2026-05-04 13:53 38.43084 13.30087 10725 ft 327 kts 344°
2026-05-04 13:53 38.45300 13.29146 10977 ft 344 kts 338°
2026-05-04 13:53 38.47571 13.28074 11493 ft 351 kts 339°
2026-05-04 13:54 38.52208 13.26004 12960 ft 354 kts 339°
2026-05-04 13:54 38.54551 13.24992 13710 ft 357 kts 339°
2026-05-04 13:54 38.59266 13.22977 15066 ft 362 kts 339°
2026-05-04 13:55 38.61662 13.21957 15758 ft 365 kts 339°
2026-05-04 13:55 38.66512 13.19891 17125 ft 370 kts 339°
2026-05-04 13:55 38.68964 13.18845 17780 ft 373 kts 339°
2026-05-04 13:56 38.71439 13.17789 18440 ft 376 kts 339°
2026-05-04 13:56 38.73933 13.16724 18983 ft 380 kts 339°
2026-05-04 13:56 38.78973 13.14568 20131 ft 384 kts 339°
2026-05-04 13:57 38.81484 13.13493 20679 ft 387 kts 339°
2026-05-04 13:57 38.84047 13.12395 21226 ft 390 kts 339°
2026-05-04 13:58 38.92214 13.10898 22771 ft 404 kts 354°
2026-05-04 13:58 38.97866 13.10621 23734 ft 409 kts 354°
2026-05-04 13:58 39.00719 13.10451 24152 ft 411 kts 354°
2026-05-04 13:59 39.03576 13.10261 24591 ft 413 kts 353°
2026-05-04 13:59 39.06413 13.10058 25016 ft 414 kts 353°
2026-05-04 13:59 39.12182 13.09627 25839 ft 417 kts 353°
2026-05-04 14:00 39.15079 13.09408 26330 ft 416 kts 353°
2026-05-04 14:00 39.20812 13.08976 27534 ft 409 kts 352°
2026-05-04 14:00 39.23642 13.08763 28113 ft 406 kts 352°
2026-05-04 14:01 39.26463 13.08549 28654 ft 405 kts 351°
2026-05-04 14:01 39.29267 13.08336 29202 ft 403 kts 351°
2026-05-04 14:01 39.34781 13.07918 30134 ft 400 kts 351°
2026-05-04 14:02 39.37573 13.07703 30120 ft 402 kts 350°
2026-05-04 14:02 39.43219 13.07268 30132 ft 413 kts 350°
2026-05-04 14:03 39.49045 13.06822 30138 ft 426 kts 350°
2026-05-04 14:03 39.55001 13.06370 30139 ft 436 kts 350°
2026-05-04 14:04 39.63984 13.04926 30132 ft 428 kts 340°
2026-05-04 14:04 39.69742 13.03009 30118 ft 427 kts 340°
2026-05-04 14:05 39.78326 13.00179 30122 ft 425 kts 340°
2026-05-04 14:06 39.84066 12.98341 30126 ft 425 kts 340°
2026-05-04 14:06 39.89803 12.96515 30127 ft 424 kts 340°
2026-05-04 14:07 39.95531 12.94690 30118 ft 423 kts 340°
2026-05-04 14:07 40.01251 12.92864 30131 ft 423 kts 340°
2026-05-04 14:08 40.06931 12.91046 30131 ft 423 kts 340°
2026-05-04 14:08 40.12646 12.89214 30118 ft 423 kts 340°
2026-05-04 14:09 40.21222 12.86459 30126 ft 423 kts 340°
2026-05-04 14:10 40.29804 12.83695 30127 ft 424 kts 340°
2026-05-04 14:10 40.35491 12.81860 30125 ft 424 kts 340°
2026-05-04 14:11 40.41205 12.79949 30123 ft 422 kts 336°
2026-05-04 14:11 40.49380 12.75852 30129 ft 419 kts 332°
2026-05-04 14:12 40.54789 12.73007 30125 ft 419 kts 333°
2026-05-04 14:13 40.62904 12.68830 30126 ft 420 kts 333°
2026-05-04 14:13 40.68357 12.66050 30123 ft 420 kts 333°
2026-05-04 14:14 40.73813 12.63268 30130 ft 420 kts 333°
2026-05-04 14:14 40.81997 12.59085 30127 ft 421 kts 333°
2026-05-04 14:15 40.92888 12.53500 30129 ft 421 kts 333°
2026-05-04 14:16 41.01088 12.49281 30127 ft 422 kts 333°
2026-05-04 14:17 41.09312 12.45038 30128 ft 423 kts 333°
2026-05-04 14:18 41.17551 12.40776 30128 ft 425 kts 333°
2026-05-04 14:19 41.28556 12.35066 30131 ft 427 kts 333°
2026-05-04 14:19 41.34081 12.32192 30131 ft 428 kts 333°
2026-05-04 14:20 41.39632 12.29298 30140 ft 429 kts 333°
2026-05-04 14:20 41.45195 12.26394 30141 ft 429 kts 333°
2026-05-04 14:21 41.53546 12.22022 30150 ft 431 kts 333°
2026-05-04 14:21 41.59090 12.19114 30154 ft 431 kts 333°
2026-05-04 14:22 41.64682 12.16175 30156 ft 432 kts 333°
2026-05-04 14:22 41.70281 12.13227 30160 ft 433 kts 333°
2026-05-04 14:23 41.78691 12.08788 30155 ft 434 kts 333°
2026-05-04 14:24 41.84306 12.05817 30235 ft 434 kts 333°
2026-05-04 14:24 41.89923 12.02840 30242 ft 434 kts 333°
2026-05-04 14:25 41.95516 11.99869 30238 ft 435 kts 333°
2026-05-04 14:25 42.03956 11.95376 30217 ft 436 kts 333°
2026-05-04 14:26 42.09597 11.92366 30176 ft 436 kts 333°
2026-05-04 14:26 42.15245 11.89347 30165 ft 437 kts 333°
2026-05-04 14:27 42.20900 11.86317 30117 ft 438 kts 333°
2026-05-04 14:27 42.26563 11.83279 30127 ft 438 kts 333°
2026-05-04 14:28 42.32232 11.80230 30122 ft 439 kts 333°
2026-05-04 14:28 42.37907 11.77172 30125 ft 440 kts 333°
2026-05-04 14:29 42.49235 11.71051 30129 ft 440 kts 333°
2026-05-04 14:30 42.54921 11.67970 30125 ft 441 kts 333°
2026-05-04 14:31 42.63487 11.63316 30125 ft 442 kts 333°
2026-05-04 14:32 42.74927 11.57079 30126 ft 444 kts 333°
2026-05-04 14:32 42.80661 11.53944 30122 ft 445 kts 333°
2026-05-04 14:33 42.86368 11.50816 30113 ft 446 kts 333°
2026-05-04 14:33 42.92129 11.47653 30121 ft 447 kts 333°
2026-05-04 14:34 42.97906 11.44475 30112 ft 448 kts 334°
2026-05-04 14:34 43.03697 11.41283 30114 ft 450 kts 334°
2026-05-04 14:35 43.09514 11.38070 30111 ft 451 kts 334°
2026-05-04 14:35 43.15344 11.34844 30109 ft 452 kts 334°
2026-05-04 14:36 43.21187 11.31603 30112 ft 453 kts 334°
2026-05-04 14:36 43.26995 11.28375 30106 ft 454 kts 334°
2026-05-04 14:37 43.32856 11.25111 30109 ft 454 kts 334°
2026-05-04 14:37 43.38710 11.21844 30108 ft 454 kts 334°
2026-05-04 14:38 43.44557 11.18575 29992 ft 449 kts 334°
2026-05-04 14:38 43.47429 11.16969 29632 ft 441 kts 334°
2026-05-04 14:38 43.50261 11.15383 29151 ft 438 kts 334°
2026-05-04 14:38 43.53044 11.13820 28712 ft 440 kts 334°
2026-05-04 14:39 43.55889 11.12219 28223 ft 444 kts 334°
2026-05-04 14:39 43.58753 11.10605 27732 ft 446 kts 334°
2026-05-04 14:39 43.61634 11.08981 27245 ft 447 kts 335°
2026-05-04 14:40 43.67410 11.05724 26273 ft 450 kts 335°
2026-05-04 14:40 43.70311 11.04086 25800 ft 451 kts 335°
2026-05-04 14:40 43.73216 11.02444 25296 ft 449 kts 335°
2026-05-04 14:40 43.76078 11.00827 24808 ft 440 kts 335°
2026-05-04 14:41 43.78891 10.99236 24313 ft 434 kts 335°
2026-05-04 14:41 43.81672 10.97660 23847 ft 428 kts 335°
2026-05-04 14:41 43.87114 10.94570 22818 ft 417 kts 335°
2026-05-04 14:42 43.92378 10.91574 21903 ft 408 kts 335°
2026-05-04 14:42 43.95000 10.90079 21461 ft 405 kts 335°
2026-05-04 14:42 43.97599 10.88595 21029 ft 403 kts 335°
2026-05-04 14:43 44.00191 10.87113 20578 ft 403 kts 335°
2026-05-04 14:43 44.02774 10.85634 20135 ft 402 kts 335°
2026-05-04 14:43 44.05358 10.84156 19708 ft 401 kts 335°
2026-05-04 14:43 44.07942 10.82678 19267 ft 401 kts 335°
2026-05-04 14:44 44.10516 10.81202 18803 ft 400 kts 335°
2026-05-04 14:44 44.13050 10.79748 18362 ft 399 kts 335°
2026-05-04 14:44 44.15633 10.78266 17844 ft 393 kts 335°
2026-05-04 14:44 44.18107 10.76845 17407 ft 388 kts 335°
2026-05-04 14:45 44.20592 10.75412 16962 ft 385 kts 335°
2026-05-04 14:45 44.23063 10.73983 16531 ft 386 kts 335°
2026-05-04 14:45 44.25543 10.72556 16103 ft 386 kts 335°
2026-05-04 14:45 44.28027 10.71125 15678 ft 386 kts 335°
2026-05-04 14:46 44.30508 10.69693 15227 ft 386 kts 335°
2026-05-04 14:46 44.32986 10.68262 14779 ft 386 kts 335°
2026-05-04 14:46 44.35430 10.66849 14353 ft 384 kts 335°
2026-05-04 14:46 44.37892 10.65423 13899 ft 383 kts 335°
2026-05-04 14:47 44.40343 10.64003 13414 ft 380 kts 335°
2026-05-04 14:47 44.42768 10.62596 12967 ft 374 kts 335°
2026-05-04 14:47 44.45149 10.61214 12535 ft 368 kts 335°
2026-05-04 14:47 44.47503 10.59846 12114 ft 363 kts 336°
2026-05-04 14:48 44.49824 10.58497 11701 ft 359 kts 335°
2026-05-04 14:48 44.52058 10.56991 11226 ft 355 kts 328°
2026-05-04 14:48 44.54111 10.55164 10808 ft 345 kts 324°
2026-05-04 14:48 44.56037 10.53312 10461 ft 334 kts 323°
2026-05-04 14:49 44.57910 10.51522 10288 ft 319 kts 324°
2026-05-04 14:49 44.59723 10.49826 10155 ft 308 kts 324°
2026-05-04 14:49 44.61507 10.48183 9919 ft 308 kts 325°
2026-05-04 14:49 44.63303 10.46548 9593 ft 307 kts 325°
2026-05-04 14:50 44.65087 10.44928 9292 ft 304 kts 325°
2026-05-04 14:50 44.66857 10.43324 8986 ft 302 kts 326°
2026-05-04 14:50 44.68650 10.41820 8693 ft 299 kts 335°
2026-05-04 14:50 44.70654 10.41186 8422 ft 297 kts
2026-05-04 14:51 44.72638 10.41675 8166 ft 292 kts 17°
2026-05-04 14:51 44.74578 10.42507 7840 ft 292 kts 18°
2026-05-04 14:51 44.76510 10.43374 7571 ft 289 kts 18°
2026-05-04 14:51 44.78416 10.44238 7314 ft 287 kts 19°
2026-05-04 14:52 44.80308 10.45101 7002 ft 283 kts 18°
2026-05-04 14:52 44.82178 10.45960 6599 ft 283 kts 19°
2026-05-04 14:52 44.84045 10.46811 6205 ft 281 kts 18°
2026-05-04 14:52 44.85900 10.47646 5837 ft 278 kts 18°
2026-05-04 14:53 44.87741 10.48488 5392 ft 278 kts 18°
2026-05-04 14:53 44.89578 10.49196 4981 ft 277 kts 11°
2026-05-04 14:53 44.91480 10.49446 4637 ft 272 kts 359°
2026-05-04 14:53 44.93258 10.48882 4435 ft 260 kts 330°
2026-05-04 14:54 44.94451 10.47128 4390 ft 239 kts 298°
2026-05-04 14:54 44.95168 10.45061 4082 ft 232 kts 293°
2026-05-04 14:54 44.95814 10.42988 3625 ft 229 kts 290°
2026-05-04 14:54 44.96264 10.40836 3216 ft 226 kts 284°
2026-05-04 14:55 44.96562 10.38690 2870 ft 218 kts 272°
2026-05-04 14:55 44.96176 10.36754 2712 ft 205 kts 234°
2026-05-04 14:55 44.95067 10.35569 2544 ft 196 kts 210°
2026-05-04 14:55 44.93878 10.34804 2363 ft 184 kts 205°
2026-05-04 14:56 44.92705 10.34150 2125 ft 175 kts 202°
2026-05-04 14:56 44.91560 10.33635 1863 ft 168 kts 200°
2026-05-04 14:56 44.90427 10.33131 1650 ft 170 kts 199°
2026-05-04 14:56 44.89314 10.32682 1397 ft 162 kts 199°
2026-05-04 14:57 44.88285 10.32190 1223 ft 155 kts 200°
2026-05-04 14:57 44.87238 10.31723 995 ft 159 kts 199°
2026-05-04 14:57 44.86180 10.31258 732 ft 158 kts 199°
2026-05-04 14:57 44.85157 10.30808 492 ft 156 kts 198°
2026-05-04 14:58 44.84098 10.30334 329 ft 161 kts 198°
2026-05-04 14:58 44.83047 10.29874 156 ft 153 kts 198°
2026-05-04 14:58 44.82222 10.29515 166 ft 92 kts 197°
2026-05-04 14:58 44.81933 10.29395 169 ft 14 kts 176°
2026-05-04 14:59 44.81924 10.29504 167 ft 14 kts 62°
2026-05-04 14:59 44.81967 10.29621 166 ft 13 kts 62°
2026-05-04 14:59 44.81976 10.29643 166 ft 0 kts 62°
2026-05-04 15:00 44.81976 10.29644 166 ft 0 kts 62°
2026-05-04 15:00 44.81984 10.29661 166 ft 3 kts 52°
2026-05-04 15:01 44.82050 10.29702 165 ft 9 kts 20°
2026-05-04 15:01 44.82055 10.29749 163 ft 5 kts 121°
2026-05-04 15:01 44.82041 10.29766 164 ft 2 kts 144°
2026-05-04 15:01 44.82039 10.29768 164 ft 0 kts 144°
2026-05-04 15:10 44.82039 10.29767 164 ft 0 kts 144°